When you browse on this site, cookies collect data to enhance your experience and personalize the content and advertising you see.
Visit our Privacy Policy to learn more. By continuing to use the site, you agree to this use of cookies and data.
  • In Slovakia
  • List of Countries
  • For 7 days
  • Water Temperature
  • Satellite Maps
  • Weather Map
  • Weather Widgets
  • user-avatar
    Login

    Hourly Weather Golden Sands

    Today, 23 March, Saturday

    Time Temperature Precipitation Wind Pressure Humidity
    00:00 +10°C° 0 mm 4 mps 768 mmHg 65%
    01:00 +10°C° 0 mm 4 mps 768 mmHg 63%
    02:00 +10°C° 0 mm 5 mps 768 mmHg 61%
    03:00 +9°C° 0 mm 5 mps 768 mmHg 67%
    04:00 +9°C° 0 mm 5 mps 767 mmHg 73%
    05:00 +8°C° 0 mm 5 mps 767 mmHg 79%
    06:00 +9°C° 0 mm 5 mps 767 mmHg 76%
    07:00 +9°C° 0 mm 5 mps 767 mmHg 72%
    08:00 +9°C° 0 mm 5 mps 768 mmHg 69%
    09:00 +9°C° 0 mm 5 mps 768 mmHg 65%
    10:00 +10°C° 0 mm 5 mps 768 mmHg 62%
    11:00 +10°C° 0 mm 5 mps 768 mmHg 58%
    12:00 +11°C° 0 mm 4 mps 767 mmHg 54%
    13:00 +11°C° 0 mm 4 mps 767 mmHg 50%
    14:00 +12°C° 0 mm 3 mps 767 mmHg 46%
    15:00 +11°C° 0 mm 4 mps 767 mmHg 44%
    16:00 +11°C° 0 mm 4 mps 767 mmHg 42%
    17:00 +11°C° 0 mm 4 mps 767 mmHg 40%
    18:00 +10°C° 0 mm 3 mps 767 mmHg 45%
    19:00 +9°C° 0 mm 3 mps 767 mmHg 51%
    20:00 +7°C° 0 mm 2 mps 768 mmHg 56%
    21:00 +7°C° 0 mm 2 mps 768 mmHg 56%
    22:00 +8°C° 0 mm 1 mps 768 mmHg 56%
    23:00 +7°C° 0 mm 1 mps 768 mmHg 56%

    Tomorrow, 24 March, Sunday

    Time Temperature Precipitation Wind Pressure Humidity
    00:00 +7°C° 0 mm 1 mps 768 mmHg 55%
    01:00 +6°C° 0 mm 2 mps 768 mmHg 55%
    02:00 +6°C° 0 mm 2 mps 768 mmHg 54%
    03:00 +4°C° 0 mm 3 mps 767 mmHg 53%
    04:00 +4°C° 0 mm 4 mps 767 mmHg 52%
    05:00 +3°C° 0 mm 5 mps 767 mmHg 51%
    06:00 +5°C° 0 mm 5 mps 767 mmHg 52%
    07:00 +4°C° 0 mm 6 mps 767 mmHg 52%
    08:00 +5°C° 0 mm 6 mps 767 mmHg 52%
    09:00 +7°C° 0 mm 6 mps 767 mmHg 50%
    10:00 +8°C° 0 mm 5 mps 767 mmHg 48%
    11:00 +9°C° 0 mm 5 mps 767 mmHg 47%
    12:00 +10°C° 0 mm 5 mps 767 mmHg 46%
    13:00 +10°C° 0 mm 5 mps 766 mmHg 46%
    14:00 +11°C° 0 mm 4 mps 766 mmHg 46%
    15:00 +11°C° 0 mm 4 mps 766 mmHg 50%
    16:00 +10°C° 0 mm 4 mps 766 mmHg 54%
    17:00 +8°C° 0 mm 4 mps 765 mmHg 58%
    18:00 +8°C° 0 mm 3 mps 765 mmHg 63%
    19:00 +7°C° 0 mm 3 mps 765 mmHg 67%
    20:00 +6°C° 0 mm 2 mps 765 mmHg 72%
    21:00 +6°C° 0 mm 2 mps 765 mmHg 73%
    22:00 +6°C° 0 mm 2 mps 765 mmHg 74%
    23:00 +6°C° 0 mm 2 mps 765 mmHg 74%

    Day after tomorrow, 25 March, Monday

    Time Temperature Precipitation Wind Pressure Humidity
    00:00 +5°C° 0 mm 3 mps 765 mmHg 75%
    01:00 +5°C° 0 mm 3 mps 765 mmHg 75%
    02:00 +5°C° 0 mm 3 mps 764 mmHg 75%
    03:00 +5°C° 0 mm 4 mps 764 mmHg 75%
    04:00 +5°C° 0 mm 4 mps 764 mmHg 75%
    05:00 +5°C° 0 mm 4 mps 763 mmHg 75%
    06:00 +6°C° 0 mm 4 mps 763 mmHg 71%
    07:00 +7°C° 0 mm 5 mps 763 mmHg 68%
    08:00 +8°C° 0 mm 5 mps 763 mmHg 65%
    09:00 +9°C° 0 mm 5 mps 762 mmHg 60%
    10:00 +10°C° 0 mm 5 mps 762 mmHg 55%
    11:00 +13°C° 0 mm 6 mps 762 mmHg 49%
    12:00 +13°C° 0 mm 6 mps 761 mmHg 49%
    13:00 +14°C° 0 mm 6 mps 761 mmHg 49%
    14:00 +14°C° 0 mm 7 mps 760 mmHg 48%
    15:00 +14°C° 0 mm 7 mps 760 mmHg 53%
    16:00 +12°C° 0 mm 7 mps 759 mmHg 57%
    17:00 +11°C° 0 mm 7 mps 759 mmHg 61%
    18:00 +10°C° 0 mm 7 mps 759 mmHg 66%
    19:00 +9°C° 0 mm 7 mps 759 mmHg 70%
    20:00 +9°C° 0 mm 7 mps 759 mmHg 75%
    21:00 +8°C° 0 mm 7 mps 759 mmHg 76%
    22:00 +8°C° 0 mm 7 mps 758 mmHg 78%
    23:00 +7°C° 0 mm 8 mps 758 mmHg 80%

    26 March, Tuesday

    Time Temperature Precipitation Wind Pressure Humidity
    00:00 +8°C° 0 mm 7 mps 758 mmHg 81%
    01:00 +8°C° 0 mm 7 mps 758 mmHg 81%
    02:00 +8°C° 0 mm 7 mps 758 mmHg 81%
    03:00 +8°C° 0 mm 6 mps 758 mmHg 80%
    04:00 +8°C° 0 mm 5 mps 757 mmHg 79%
    05:00 +8°C° 0 mm 5 mps 757 mmHg 77%
    06:00 +10°C° 0 mm 4 mps 757 mmHg 74%
    07:00 +10°C° 0 mm 4 mps 758 mmHg 72%
    08:00 +11°C° 0 mm 4 mps 758 mmHg 69%
    09:00 +12°C° 0 mm 4 mps 758 mmHg 67%
    10:00 +13°C° 0 mm 4 mps 758 mmHg 65%
    11:00 +14°C° 0 mm 4 mps 758 mmHg 62%
    12:00 +13°C° 0 mm 5 mps 758 mmHg 65%
    13:00 +13°C° 0 mm 6 mps 759 mmHg 68%
    14:00 +11°C° 0 mm 7 mps 759 mmHg 71%
    15:00 +10°C° 0 mm 8 mps 759 mmHg 70%
    16:00 +8°C° 0 mm 9 mps 759 mmHg 69%
    17:00 +7°C° 0 mm 10 mps 760 mmHg 68%
    18:00 +7°C° 0.1 mm 9 mps 760 mmHg 69%
    19:00 +7°C° 0.1 mm 9 mps 761 mmHg 69%
    20:00 +6°C° 0.1 mm 8 mps 761 mmHg 69%
    21:00 +6°C° 0.1 mm 8 mps 761 mmHg 70%
    22:00 +6°C° 0.1 mm 9 mps 761 mmHg 70%
    23:00 +6°C° 0.1 mm 9 mps 762 mmHg 71%

    27 March, Wednesday

    Time Temperature Precipitation Wind Pressure Humidity
    00:00 +6°C° 0 mm 9 mps 762 mmHg 72%
    01:00 +6°C° 0 mm 9 mps 762 mmHg 72%
    02:00 +5°C° 0 mm 10 mps 762 mmHg 73%
    03:00 +5°C° 0 mm 10 mps 762 mmHg 74%
    04:00 +5°C° 0 mm 10 mps 763 mmHg 75%
    05:00 +4°C° 0 mm 11 mps 763 mmHg 76%
    06:00 +4°C° 0 mm 11 mps 763 mmHg 75%
    07:00 +4°C° 0 mm 11 mps 764 mmHg 73%
    08:00 +4°C° 0 mm 11 mps 764 mmHg 72%
    09:00 +6°C° 0.1 mm 11 mps 764 mmHg 69%
    10:00 +7°C° 0.1 mm 11 mps 765 mmHg 65%
    11:00 +7°C° 0.1 mm 11 mps 765 mmHg 62%
    12:00 +8°C° 0 mm 10 mps 765 mmHg 60%
    13:00 +8°C° 0 mm 10 mps 765 mmHg 58%
    14:00 +8°C° 0 mm 10 mps 765 mmHg 56%
    15:00 +8°C° 0 mm 10 mps 765 mmHg 57%
    16:00 +8°C° 0 mm 9 mps 766 mmHg 58%
    17:00 +8°C° 0 mm 9 mps 766 mmHg 59%
    18:00 +7°C° 0 mm 9 mps 766 mmHg 64%
    19:00 +6°C° 0 mm 8 mps 767 mmHg 69%
    20:00 +5°C° 0 mm 8 mps 767 mmHg 74%
    21:00 +5°C° 0 mm 8 mps 767 mmHg 74%
    22:00 +5°C° 0 mm 8 mps 767 mmHg 74%
    23:00 +5°C° 0 mm 8 mps 768 mmHg 73%

    28 March, Thursday

    Time Temperature Precipitation Wind Pressure Humidity
    00:00 +4°C° 0 mm 8 mps 768 mmHg 69%
    01:00 +3°C° 0 mm 9 mps 768 mmHg 65%
    02:00 +3°C° 0 mm 9 mps 768 mmHg 61%
    03:00 +3°C° 0 mm 9 mps 768 mmHg 62%
    04:00 +3°C° 0 mm 9 mps 768 mmHg 62%
    05:00 +3°C° 0 mm 10 mps 768 mmHg 63%
    06:00 +3°C° 0 mm 10 mps 769 mmHg 61%
    07:00 +5°C° 0 mm 10 mps 769 mmHg 60%
    08:00 +6°C° 0 mm 10 mps 770 mmHg 59%
    09:00 +6°C° 0 mm 10 mps 770 mmHg 56%
    10:00 +7°C° 0 mm 10 mps 770 mmHg 54%
    11:00 +8°C° 0 mm 10 mps 771 mmHg 51%
    12:00 +8°C° 0 mm 10 mps 771 mmHg 52%
    13:00 +8°C° 0 mm 9 mps 771 mmHg 52%
    14:00 +8°C° 0 mm 9 mps 771 mmHg 52%
    15:00 +7°C° 0 mm 9 mps 771 mmHg 54%
    16:00 +7°C° 0 mm 9 mps 771 mmHg 55%
    17:00 +7°C° 0 mm 9 mps 771 mmHg 57%
    18:00 +6°C° 0 mm 9 mps 771 mmHg 57%
    19:00 +5°C° 0 mm 10 mps 771 mmHg 57%
    20:00 +3°C° 0 mm 10 mps 772 mmHg 57%
    21:00 +3°C° 0 mm 9 mps 772 mmHg 58%
    22:00 +3°C° 0 mm 9 mps 772 mmHg 59%
    23:00 +3°C° 0 mm 9 mps 772 mmHg 60%
    Show more